Theta_e
347 348 349 349 349 349 351 351 351 352 353 353 353 353 353 353 354 353 354 353 359 359 357 355 353 352 352 349 349 348 352 352 353 354 355 352 359 363 366 364 369 370 374 376 371 370 370 369 370 369 367 366 365 362 361 360 365 365 365 364 359 358 357 359 359 354 353 352 351 348 350 352 352 352 351 349 351 354 354 351 350 354 353 352 354
348 347 348 348 348 350 350 351 352 350 351 353 353 353 355 354 354 354 356 354 358 358 357 353 356 352 349 349 345 345 347 347 349 353 351 351 360 363 366 364 367 369 371 373 375 373 369 369 372 371 367 368 368 369 367 366 366 363 362 360 361 358 357 355 358 354 349 341 341 342 344 347 350 349 346 348 348 350 352 353 354 349 350 352 353
347 347 348 348 349 349 350 350 351 351 352 353 354 354 355 354 356 358 357 356 358 359 359 354 355 355 351 349 345 344 347 349 348 348 351 350 356 362 365 364 366 367 369 369 369 369 371 371 370 372 367 369 366 365 365 368 370 363 362 361 358 359 358 360 361 358 344 345 346 343 337 338 345 345 345 346 345 347 349 349 350 349 349 351 353
345 347 346 348 349 350 350 350 351 351 352 353 353 354 355 356 358 359 360 360 360 361 361 358 356 359 358 355 350 348 347 349 351 350 350 350 352 359 363 365 366 365 366 366 365 366 367 368 369 367 366 372 373 372 369 369 367 366 360 360 356 353 353 353 358 356 352 346 339 338 338 337 334 339 342 344 345 344 345 345 347 346 348 351 353
346 347 347 347 348 348 349 352 352 351 351 352 354 354 355 355 358 361 361 361 361 362 361 360 358 360 360 359 354 350 350 348 346 344 348 349 350 356 358 362 366 363 364 365 364 365 366 367 365 367 371 371 368 369 370 362 364 366 364 361 359 355 352 353 355 358 356 354 347 341 337 335 335 337 335 339 341 340 341 343 345 343 346 350 348
345 345 347 347 349 350 352 351 351 351 351 353 355 355 357 357 359 363 361 360 361 363 363 361 359 359 358 354 349 344 347 346 344 343 345 346 343 349 357 360 361 364 365 365 364 364 365 366 367 366 367 366 369 365 365 364 361 364 365 363 360 359 355 351 353 358 357 359 356 352 350 340 337 338 337 335 344 339 342 342 345 344 345 346 349
345 347 349 347 348 349 350 351 351 351 353 355 355 356 358 358 360 362 363 361 361 364 363 362 361 362 360 354 351 346 348 349 352 347 346 347 347 345 351 358 363 362 362 365 364 365 366 367 368 366 365 367 367 368 367 363 360 360 362 360 359 364 361 358 353 351 362 360 356 349 349 348 345 341 336 336 336 340 340 338 340 342 343 343 345
345 347 346 346 348 349 349 351 352 351 354 355 355 356 358 361 361 362 363 364 364 365 364 364 362 362 360 357 353 349 346 348 352 351 347 348 345 345 346 352 362 364 363 364 365 366 367 367 369 368 364 363 363 363 361 359 361 364 364 371 369 365 368 358 357 356 355 356 353 349 348 348 350 346 344 340 339 335 335 337 333 337 339 341 341
344 344 346 347 349 349 351 352 353 353 353 354 355 357 358 360 362 364 364 365 363 366 365 364 364 362 361 358 354 352 349 346 349 350 347 348 347 347 349 349 358 364 364 362 365 366 366 367 368 367 365 363 363 360 359 358 359 362 366 367 368 364 363 364 362 359 356 353 353 353 349 347 346 345 345 343 340 335 333 335 336 338 338 337 340
347 349 350 349 348 350 352 353 354 353 353 356 357 356 358 360 362 364 363 363 364 365 365 365 364 363 361 358 356 354 351 348 348 350 350 349 349 351 350 353 354 359 365 365 365 366 367 368 366 366 366 361 360 358 358 358 360 362 365 369 368 368 368 364 364 365 361 361 355 353 352 350 348 345 343 342 339 342 337 335 336 336 338 341 343
343 345 347 349 350 352 353 352 354 353 354 354 355 356 357 359 362 363 364 362 363 364 364 362 363 363 361 360 359 356 355 351 350 352 351 352 351 352 352 353 356 355 358 363 364 365 367 367 363 363 364 364 364 361 361 357 357 358 360 363 367 370 368 365 364 364 364 365 360 356 353 349 347 344 344 344 342 340 338 337 337 337 337 338 344
344 346 346 347 353 353 350 352 353 354 352 353 354 355 357 359 362 362 363 363 362 363 362 361 361 362 363 363 361 359 358 352 352 353 354 354 353 352 355 356 357 355 358 356 359 360 363 364 366 364 365 364 364 365 362 360 359 359 359 361 363 365 368 371 367 364 363 365 362 358 353 350 349 347 346 348 344 344 343 341 340 343 341 340 343
339 344 347 350 348 346 350 352 354 354 353 354 354 354 357 360 362 362 363 364 364 363 362 363 362 361 361 362 363 363 361 357 355 354 358 356 355 354 356 355 358 356 354 354 356 359 361 364 365 363 364 366 368 367 366 365 364 360 360 361 361 363 363 367 368 363 362 361 360 359 354 350 348 348 348 346 347 348 347 342 341 341 340 340 345
344 345 348 350 348 348 353 353 354 354 353 353 355 357 358 359 363 363 364 364 365 364 363 363 362 361 362 362 363 364 362 359 357 355 357 359 359 356 352 351 356 356 353 356 355 357 359 363 366 366 367 369 369 369 368 368 368 365 363 363 361 363 363 363 365 365 365 366 365 361 358 353 349 350 348 346 344 345 343 342 344 343 341 340 345
345 345 344 345 349 353 352 353 354 355 354 353 355 357 359 360 363 364 364 364 364 363 363 362 361 361 361 361 363 364 363 361 358 357 357 359 358 357 356 351 351 356 355 358 362 359 360 363 366 367 366 367 369 369 367 367 369 367 366 366 365 362 364 363 361 362 361 363 365 364 361 358 354 353 351 349 348 347 345 345 345 342 339 339 339
339 341 341 345 350 352 354 354 355 355 356 354 355 357 357 361 364 365 365 364 364 364 362 361 361 360 362 362 362 365 365 363 362 362 359 359 361 359 359 358 353 355 360 360 361 360 360 361 364 365 367 365 368 370 368 364 366 365 365 365 365 361 362 363 363 361 359 362 362 366 365 360 358 354 353 351 350 350 349 351 351 347 340 337 340
340 340 340 346 348 352 352 356 355 356 356 355 358 359 361 362 363 365 367 366 365 364 363 363 363 362 362 362 362 363 363 363 361 361 358 359 361 361 358 358 356 356 357 360 362 364 363 362 361 360 365 366 367 369 368 367 366 365 363 366 365 360 362 363 362 360 361 358 360 362 362 361 360 361 358 355 357 359 357 354 351 348 350 344 339
337 340 346 347 348 349 353 355 356 356 356 357 359 360 362 362 364 364 366 366 366 365 363 363 363 362 362 362 363 364 361 362 362 362 361 359 360 361 359 358 358 354 354 354 360 363 365 365 362 362 361 365 365 364 368 368 367 365 363 364 365 366 363 364 364 362 361 361 360 360 360 359 363 361 359 358 360 362 359 356 353 352 353 347 345
335 339 342 346 349 350 355 354 355 357 359 359 359 359 360 362 364 365 365 366 365 364 364 363 363 361 361 361 362 362 363 363 362 365 365 360 358 359 359 357 359 359 358 360 360 361 364 364 365 362 363 363 365 364 366 366 367 365 363 361 364 367 366 364 366 365 362 360 360 359 361 360 363 362 362 359 361 363 361 359 358 357 355 354 351
335 338 342 347 346 347 354 354 354 356 358 358 358 358 359 362 364 365 366 367 367 364 364 362 363 361 361 364 365 365 365 363 363 364 363 361 360 358 360 356 358 359 358 358 359 361 364 364 363 360 358 360 362 363 363 366 366 366 363 358 358 365 365 366 364 361 358 360 361 361 363 362 363 362 362 361 361 363 363 361 361 358 358 356 355
335 336 337 341 343 342 349 354 354 356 358 359 358 359 359 361 362 363 365 365 364 364 364 365 364 363 364 363 363 363 362 363 362 363 364 364 364 362 360 358 360 360 360 360 360 362 364 364 362 362 357 360 364 363 363 364 367 366 365 364 362 362 364 365 366 364 360 360 362 361 362 363 364 362 361 361 359 360 364 362 362 361 358 359 357
336 338 339 339 341 346 349 348 354 354 356 357 357 358 359 359 360 362 363 363 363 363 364 364 365 363 362 363 362 363 363 364 361 362 364 365 365 362 362 363 359 361 361 360 362 361 361 363 362 362 362 358 364 365 361 362 364 365 365 362 361 363 363 365 364 364 365 363 362 363 363 362 364 363 360 359 358 356 357 359 361 360 359 360 362
333 335 339 342 344 346 347 348 352 353 355 357 358 357 357 359 360 361 361 362 363 363 363 365 363 363 362 362 363 364 363 363 362 361 362 362 364 364 363 362 359 358 362 361 362 363 363 363 363 363 365 362 365 364 363 362 363 365 365 362 360 362 362 363 363 364 364 365 364 364 362 363 360 359 361 361 359 358 358 357 357 360 360 360 362
334 335 336 340 343 347 349 349 351 353 355 356 357 357 358 359 359 359 359 361 361 361 361 364 362 362 363 364 364 363 362 362 360 361 361 361 362 363 363 362 361 358 359 362 362 364 365 365 362 363 364 366 364 364 364 363 362 364 365 365 364 362 363 363 362 363 363 363 361 362 361 359 360 359 361 361 362 360 359 360 359 361 363 362 364
333 335 337 339 339 343 351 352 357 355 353 356 356 357 357 358 358 359 359 360 359 361 360 363 362 362 362 363 361 361 362 361 360 359 359 360 359 360 363 362 362 358 357 362 363 365 366 366 362 363 364 366 365 365 365 363 362 363 364 364 365 365 363 364 366 365 364 363 362 360 360 362 361 359 360 360 362 362 361 360 359 361 360 360 361
335 337 337 339 342 343 353 354 356 353 353 356 357 357 357 358 358 360 358 359 358 359 360 361 362 360 361 361 361 361 361 361 360 359 359 359 358 358 360 362 362 359 358 359 362 363 364 366 366 365 366 367 368 368 367 365 361 361 362 364 364 365 363 364 366 366 366 365 363 363 362 361 360 358 358 359 362 361 362 361 361 361 361 362 363
333 337 338 349 354 350 355 358 350 352 352 354 355 356 357 358 359 359 359 359 359 358 360 361 362 360 360 360 361 360 360 360 361 359 358 358 357 356 357 360 361 360 358 356 360 363 363 365 367 367 366 367 369 368 370 368 365 364 363 363 361 362 363 364 365 365 364 364 363 363 363 362 362 361 359 359 360 362 362 362 364 365 364 362 360
334 337 338 339 349 352 353 355 353 352 353 353 355 356 357 358 358 359 359 358 358 358 359 361 361 360 361 359 362 362 361 363 363 363 360 358 358 356 357 359 362 361 358 356 357 361 363 364 367 367 368 369 370 369 369 371 369 363 361 363 363 361 360 363 363 364 364 359 359 360 359 360 362 364 363 363 363 360 364 365 365 366 367 366 363
335 343 345 346 343 352 356 353 353 353 353 352 353 355 357 358 359 360 358 359 360 358 358 359 362 362 363 365 365 363 362 365 363 364 360 359 358 358 358 359 362 362 359 357 357 359 363 364 366 368 368 367 367 368 368 369 369 366 362 359 362 361 359 360 362 361 362 362 358 355 354 356 363 371 366 367 365 366 362 364 367 368 368 366 367
326 330 333 343 345 349 355 356 358 354 353 351 352 356 355 356 357 358 359 359 359 359 360 360 361 363 366 367 369 368 367 365 364 364 365 362 359 360 357 357 361 362 363 362 361 359 361 363 364 366 367 365 365 367 362 348 355 368 365 358 359 363 362 359 360 360 359 359 359 357 352 365 366 371 368 360 358 361 363 363 367 368 368 368 366
334 338 338 340 343 346 352 358 359 357 354 352 353 355 355 355 357 358 359 359 359 360 360 361 363 365 367 369 368 368 370 368 367 366 367 366 365 362 363 366 365 365 367 369 363 358 357 361 363 364 365 364 362 362 345 337 340 348 365 364 360 362 364 363 358 361 360 357 356 358 359 361 371 370 371 355 353 349 350 348 349 353 361 372 368
334 338 344 345 343 344 347 352 355 355 354 353 355 353 353 353 355 356 357 358 359 359 360 365 365 368 369 368 368 369 370 369 369 369 369 369 367 367 367 368 364 364 368 365 362 361 362 359 361 363 363 363 362 349 334 335 337 338 350 367 362 359 360 362 362 358 359 359 356 353 352 354 357 360 361 370 358 348 344 345 343 343 344 343 344
341 338 338 344 346 345 346 348 352 354 353 353 354 353 354 355 355 356 357 357 357 358 362 366 366 368 370 369 370 369 369 369 370 370 371 370 369 368 365 363 362 365 366 367 367 363 362 360 359 362 362 363 363 342 331 333 335 335 336 353 361 360 356 358 361 362 358 359 360 358 354 353 351 368 367 362 372 367 344 338 340 341 340 339 336
342 345 347 346 352 352 356 355 352 356 355 354 355 353 355 355 355 357 357 358 359 360 362 362 365 368 370 370 370 370 369 369 370 371 371 370 368 367 365 364 364 366 367 367 365 365 364 366 363 362 366 364 365 340 329 329 331 331 334 342 364 359 359 357 359 361 361 360 363 363 360 358 357 360 364 363 367 370 372 364 360 360 361 357 341
341 343 346 350 354 355 356 357 357 352 351 355 352 353 355 355 355 355 356 361 359 360 361 363 365 368 369 370 370 370 370 371 371 371 371 370 367 368 367 365 364 365 366 367 365 364 365 366 363 361 362 362 361 333 327 325 326 327 330 337 363 359 359 361 361 362 365 364 365 365 366 364 366 366 365 365 367 369 370 372 371 366 365 366 367
340 342 345 349 350 353 354 357 360 357 349 353 353 352 352 353 354 354 355 357 360 361 361 363 365 366 368 369 369 370 370 371 371 370 370 369 369 369 368 366 365 365 367 367 368 366 366 366 365 363 360 360 361 326 326 324 324 325 327 352 362 362 360 360 362 363 365 369 368 368 369 368 368 369 364 352 361 373 371 369 369 370 370 369 369
340 344 346 351 353 355 357 358 356 356 351 348 352 351 351 352 353 353 356 355 357 362 361 363 364 366 367 369 369 368 370 370 370 369 370 369 369 369 369 368 365 364 364 365 366 364 367 366 365 366 363 361 361 335 322 321 321 322 329 359 362 361 362 361 362 363 364 366 367 369 370 368 368 371 358 340 339 356 368 368 368 368 367 366 365
338 344 348 352 354 356 357 356 353 351 352 348 352 352 351 353 352 352 355 355 355 358 361 365 364 367 368 370 370 369 370 370 370 369 369 368 369 370 369 369 365 362 361 364 366 365 365 365 365 365 364 363 362 345 317 319 319 319 336 361 362 362 362 363 363 365 365 366 368 367 371 369 369 370 348 336 332 353 367 366 365 364 362 362 364
336 342 346 349 353 355 355 357 354 346 348 347 351 353 350 352 354 352 354 354 355 358 360 363 364 367 369 370 369 369 370 369 370 370 368 369 369 369 369 369 366 365 362 363 365 365 364 365 364 364 358 361 362 346 316 319 317 316 337 364 363 363 362 362 362 363 365 365 367 366 364 361 364 363 342 333 328 351 367 366 365 364 362 361 362
335 343 348 352 354 355 354 351 349 348 346 347 349 352 353 355 351 352 353 355 356 359 363 366 367 368 370 370 369 370 371 370 371 370 370 369 369 369 369 368 367 364 361 360 360 363 363 363 364 363 363 364 363 363 336 316 316 315 323 362 365 362 361 362 364 363 364 367 366 368 364 336 333 333 333 329 321 329 364 368 366 364 362 360 364
332 339 346 350 353 352 353 353 351 352 345 344 348 352 354 355 356 356 355 355 358 362 365 368 368 367 368 369 369 370 370 371 371 371 369 368 368 367 367 367 365 364 362 361 359 360 360 362 362 363 362 363 364 365 346 314 315 314 318 334 363 363 363 364 364 363 363 363 365 366 368 344 328 327 325 322 318 317 335 368 366 364 365 374 359
331 337 342 350 352 352 354 353 351 349 347 348 353 357 359 363 359 354 357 357 361 364 365 368 369 367 367 368 369 370 371 370 372 372 370 367 368 368 367 367 365 364 365 363 363 361 359 359 361 363 366 367 363 354 367 318 316 313 316 320 355 362 363 364 364 364 364 364 365 368 371 353 326 325 323 322 319 319 318 355 367 339 337 335 367
327 334 341 347 352 354 352 353 349 349 350 351 351 362 364 362 357 361 358 362 362 364 367 369 369 367 368 368 369 369 369 368 370 372 370 367 368 367 367 369 368 367 365 363 365 363 361 360 364 364 365 368 373 370 345 336 315 313 313 315 326 345 337 368 363 364 366 366 368 369 368 354 322 319 318 319 320 320 322 341 330 331 331 330 348
327 333 342 347 351 354 353 353 349 352 352 353 356 365 363 360 361 367 362 364 365 366 369 368 368 367 367 367 367 368 370 370 370 371 369 368 367 367 367 367 367 365 363 363 363 365 363 359 359 360 361 363 369 368 345 330 328 313 313 313 317 323 331 357 364 364 367 366 368 370 363 335 313 311 312 316 318 319 338 325 319 324 326 335 353
324 334 342 347 352 353 353 353 355 357 356 359 360 361 363 362 365 369 371 366 366 367 367 367 366 365 367 367 368 369 369 368 370 370 369 367 367 367 364 367 367 364 363 363 364 364 363 361 359 359 360 362 365 367 370 339 323 316 313 312 315 318 320 323 359 363 367 366 328 315 324 323 314 312 313 314 317 317 313 318 318 321 336 348 351
328 334 340 346 354 352 355 352 353 354 355 360 360 359 362 363 364 368 368 368 367 368 368 368 367 366 366 366 366 367 368 368 369 370 369 369 367 364 363 365 363 363 365 363 363 363 363 364 361 360 360 362 366 368 369 362 333 324 319 314 315 316 321 321 335 355 335 320 315 315 312 314 318 322 338 350 355 355 324 320 322 331 347 351 354
328 332 338 347 354 351 352 353 352 353 354 353 357 359 365 367 368 363 363 369 369 369 367 368 367 366 367 366 367 366 366 366 368 368 368 368 366 365 364 363 363 362 364 363 364 363 362 361 362 362 362 364 366 367 367 368 356 347 341 334 325 327 320 322 333 348 346 352 354 354 351 336 340 333 344 347 351 341 344 339 341 343 351 355 357
329 332 340 347 352 352 354 358 359 363 359 355 356 359 363 365 364 363 364 369 370 368 367 368 365 365 365 365 366 367 366 364 366 366 365 364 364 364 361 363 363 363 362 363 364 362 361 363 363 364 365 363 363 365 368 370 365 358 353 350 342 341 343 341 344 350 356 358 360 337 340 362 359 357 358 361 361 361 358 355 358 356 356 356 360
327 331 339 344 348 351 353 354 357 361 363 365 362 362 364 365 365 365 371 369 369 366 368 367 365 366 363 366 365 365 365 364 364 365 366 367 365 364 367 366 369 369 366 365 366 365 366 366 366 366 365 365 365 365 369 347 376 341 355 358 353 350 351 350 341 334 356 358 359 358 359 356 357 355 355 356 355 355 355 356 358 359 360 359 360
328 331 336 342 345 348 349 350 352 355 357 360 363 367 367 365 366 368 371 368 368 367 368 366 364 362 363 362 363 362 364 364 363 361 363 362 320 309 337 372 367 357 347 335 339 374 374 371 362 369 372 367 367 370 346 331 323 324 326 329 332 329 329 345 335 323 344 356 356 354 354 354 354 355 353 353 353 354 355 355 356 346 357 357 356
327 330 333 337 340 343 345 344 345 349 351 354 358 361 365 369 373 371 370 369 368 365 364 363 362 361 360 362 360 361 363 367 366 364 363 367 363 350 300 298 315 320 323 322 311 308 309 315 355 374 362 320 324 318 314 313 314 319 320 320 319 318 318 322 318 338 350 353 355 353 353 354 354 354 353 353 353 353 354 354 354 354 355 354 352
Wind_Speed
18 20 21 22 21 19 17 17 17 18 17 18 17 17 16 15 14 14 13 13 12 11 10 10 9 9 8 9 8 8 6 6 5 5 5 5 6 6 7 5 5 5 4 4 4 2 2 1 2 1 2 2 1 3 5 5 3 4 3 2 3 3 3 1 1 1 2 1 1 2 3 3 4 2 1 3 3 3 2 2 2 3 3 3 1
18 18 20 22 19 21 18 17 18 20 18 18 18 18 16 17 16 15 13 13 13 12 11 10 9 9 9 9 8 8 8 7 7 6 6 6 6 5 6 6 6 5 5 5 4 4 3 2 2 2 1 2 1 3 4 3 4 3 3 2 2 3 2 3 2 3 2 2 2 3 3 3 2 4 5 5 4 4 3 3 2 1 3 3 4
18 19 21 21 22 22 18 17 18 20 20 19 19 18 18 16 14 14 13 13 13 12 11 10 9 9 9 8 8 8 8 7 7 7 6 6 7 6 5 5 6 6 6 6 5 5 4 2 3 3 3 3 2 3 2 2 4 6 3 2 2 2 2 1 2 4 2 3 2 1 3 4 3 3 5 2 3 4 4 4 2 3 3 2 1
18 20 22 22 21 20 19 18 18 19 18 19 19 20 16 14 15 15 13 14 12 12 11 11 11 9 8 7 8 6 8 7 6 6 6 6 8 8 6 6 6 6 7 6 6 5 5 4 3 3 4 3 3 2 2 2 4 3 6 4 3 0 1 1 6 3 2 1 2 0 1 1 3 2 4 3 4 4 3 3 2 2 4 3 3
16 20 22 22 22 22 21 19 19 19 19 19 19 19 15 18 16 16 14 14 12 13 12 11 10 10 8 7 7 6 5 7 7 7 7 6 6 7 7 7 7 7 7 7 6 6 5 5 4 3 3 4 3 2 2 5 3 2 4 6 5 2 2 2 2 3 2 2 2 1 1 2 3 1 1 4 4 3 7 4 6 3 3 5 3
18 20 21 22 23 21 21 21 21 19 20 19 19 19 18 17 17 16 14 13 13 15 14 11 10 10 10 8 8 8 7 7 8 8 8 8 8 7 8 8 8 8 6 6 7 6 6 5 5 4 4 3 3 3 3 1 3 7 5 2 3 3 3 2 1 1 2 1 1 1 2 3 2 2 3 2 2 6 3 5 6 5 2 5 2
19 19 18 20 21 22 23 21 21 21 20 19 19 20 20 18 18 18 14 13 14 14 15 11 11 10 12 11 10 10 9 8 7 8 7 7 7 7 7 8 8 8 8 7 6 6 6 6 6 5 4 4 4 3 3 4 3 1 5 4 2 3 2 2 1 0 0 2 3 3 3 3 1 3 4 0 3 3 4 6 7 5 4 2 7
15 16 21 22 23 24 24 24 21 21 20 20 19 19 20 19 19 18 15 14 13 14 15 13 12 12 12 12 10 11 11 9 9 7 7 6 7 7 7 7 8 8 7 7 7 7 6 6 6 6 5 4 4 5 5 5 4 5 2 2 2 1 2 2 0 2 2 0 2 2 2 1 3 3 2 3 2 2 1 1 4 4 3 5 2
17 20 22 22 23 24 22 22 22 21 20 20 20 19 19 19 19 18 16 15 15 17 16 15 12 12 12 11 10 10 10 9 8 8 7 6 7 7 6 7 7 8 8 7 8 7 7 6 6 6 5 5 5 5 5 4 3 3 4 3 3 3 2 2 2 2 4 1 2 1 2 1 3 4 4 2 2 1 2 3 2 6 2 5 6
15 13 16 21 23 23 23 22 22 20 20 20 19 18 19 18 19 20 18 16 15 17 16 16 15 12 12 12 13 11 10 9 8 8 8 7 7 7 7 6 7 7 8 8 8 8 8 7 7 7 7 6 5 6 5 4 4 3 4 4 4 4 3 3 3 2 3 2 2 2 2 2 1 1 2 4 4 2 3 4 2 4 3 3 2
17 21 20 20 19 21 22 23 23 21 19 20 19 19 19 19 20 21 20 16 17 18 17 17 15 13 12 13 14 13 12 11 9 9 9 8 8 9 8 7 7 7 8 8 9 9 9 8 7 7 7 6 5 5 4 4 5 5 5 5 5 4 4 3 3 4 3 2 2 2 3 3 3 2 2 2 2 2 2 4 4 3 6 3 2
16 15 17 19 19 21 21 22 22 21 20 20 19 19 19 19 20 21 20 18 17 18 18 17 16 15 13 14 14 13 13 11 11 11 11 11 11 9 8 8 8 8 7 8 9 10 8 8 8 7 6 6 6 5 5 5 4 4 4 4 5 6 5 4 4 4 5 3 4 3 4 4 4 4 4 3 2 1 2 4 4 4 2 2 3
18 16 14 16 21 22 22 22 21 21 19 22 22 21 20 20 22 22 21 20 18 19 19 18 17 16 14 14 14 12 13 13 12 11 11 11 10 10 9 8 8 8 8 8 9 10 8 8 8 7 6 6 5 5 5 4 3 3 3 5 5 5 5 5 4 5 5 4 3 3 3 4 3 3 3 4 4 2 2 4 5 4 4 2 4
12 13 14 17 17 20 22 22 22 21 23 22 22 20 19 19 21 22 22 21 18 19 19 18 18 16 15 14 13 12 13 13 12 12 12 10 10 10 11 10 9 10 10 9 8 9 8 8 8 8 7 7 7 6 6 5 4 4 4 4 5 5 5 6 6 6 5 6 4 3 3 3 3 3 4 2 3 5 4 5 3 3 5 4 2
17 17 20 19 23 24 21 21 21 21 23 22 20 19 19 19 20 22 21 21 20 20 18 19 17 17 16 16 14 13 13 12 12 11 12 12 11 11 10 10 10 9 9 9 9 8 10 8 9 9 8 8 8 7 6 6 6 6 5 5 5 5 6 6 6 7 6 6 5 4 3 4 2 3 3 3 3 3 2 1 1 3 4 4 4
17 17 18 19 18 20 19 20 21 21 22 21 22 20 19 19 21 22 23 22 21 20 19 19 17 16 17 17 16 15 12 12 11 11 11 12 11 11 10 10 9 8 9 9 10 10 9 10 10 10 9 9 8 8 8 7 7 7 6 6 6 5 5 6 6 6 7 7 6 5 4 4 3 4 4 3 3 3 2 3 1 2 2 4 3
18 18 17 18 17 19 19 21 20 21 21 22 21 21 22 21 21 23 22 21 22 21 20 18 18 17 18 17 17 16 16 15 14 15 15 13 12 11 11 11 11 9 9 10 10 10 9 10 10 10 9 9 9 9 8 8 7 7 7 6 7 7 6 6 6 6 6 6 5 6 5 4 4 3 3 3 1 1 2 2 3 3 2 3 4
21 22 21 22 23 25 22 21 23 23 24 24 23 23 21 20 22 23 23 23 22 21 20 19 19 19 18 18 18 17 16 16 14 14 14 13 12 11 11 11 11 11 10 9 10 11 10 11 9 9 10 10 9 9 9 8 8 7 7 7 7 6 6 6 6 6 6 6 5 5 5 5 5 4 5 5 2 2 4 4 4 4 3 4 4
16 18 19 18 17 20 20 21 23 23 23 23 23 23 22 21 21 23 24 24 24 20 20 18 19 16 16 18 19 17 16 15 13 13 13 13 14 13 13 11 11 11 10 9 10 11 11 10 10 10 9 10 10 10 9 8 9 7 7 7 7 6 6 6 6 6 6 6 6 6 5 4 4 5 4 4 3 4 5 4 4 3 4 5 5
18 18 15 14 16 21 23 23 23 23 23 22 24 22 25 23 23 22 22 21 21 21 19 20 20 18 17 17 18 16 16 15 14 13 13 14 14 14 14 14 12 11 11 12 11 11 12 12 11 11 11 11 11 10 10 9 9 8 8 8 7 8 8 7 7 7 6 6 6 6 6 5 5 5 5 5 4 5 4 5 5 5 5 5 5
20 19 21 20 19 21 22 21 21 22 21 21 22 24 23 22 23 23 23 24 24 22 21 19 19 19 19 20 19 18 18 16 16 16 14 14 13 13 13 13 11 12 11 12 12 12 11 12 12 11 12 10 10 10 10 9 9 9 8 8 8 7 9 8 7 8 7 6 6 6 6 7 7 7 6 5 6 6 6 6 6 5 6 6 7
19 21 21 20 20 17 13 17 18 20 21 22 21 22 23 23 22 23 23 22 23 22 21 20 19 19 21 20 20 18 18 16 17 16 15 14 13 13 13 12 13 12 12 13 13 12 12 12 12 11 11 11 10 10 11 10 10 10 10 8 9 8 8 8 8 8 7 7 6 7 7 7 7 8 7 7 7 7 7 7 7 7 7 7 7
20 20 21 20 17 17 19 23 21 21 21 23 22 22 22 24 23 22 23 24 23 23 21 19 19 19 21 20 19 18 18 19 19 16 17 16 15 14 13 13 13 13 13 12 13 13 12 12 11 10 10 11 10 11 10 10 10 10 11 10 9 10 10 9 10 9 9 8 8 7 8 8 7 8 8 8 8 7 7 6 7 7 8 8 7
17 18 17 19 18 20 18 18 19 18 19 22 21 21 22 22 22 22 24 25 23 21 21 20 20 21 22 20 19 18 20 20 19 17 18 18 16 15 14 15 14 13 14 13 12 13 12 12 12 11 11 11 11 11 11 11 11 11 11 10 10 9 10 10 10 10 10 9 9 8 9 9 8 8 8 7 7 7 7 6 7 7 7 7 7
18 16 17 19 19 16 13 13 14 17 20 20 20 21 21 21 21 22 22 24 22 21 21 21 21 22 22 21 22 20 20 21 20 17 19 18 17 16 14 16 15 15 14 14 12 12 12 12 12 13 12 12 12 12 12 12 11 11 11 11 10 10 10 10 10 10 10 9 9 9 9 9 8 8 8 8 8 9 8 7 8 7 7 8 7
16 15 14 14 16 14 15 17 17 20 20 19 19 21 21 21 23 22 22 22 22 21 22 22 21 22 21 23 22 21 21 22 21 19 19 19 17 16 16 15 15 15 15 14 14 13 13 13 13 13 13 13 12 12 12 12 12 12 11 11 11 11 11 11 11 11 10 10 10 10 9 9 9 9 9 8 8 9 8 8 9 8 7 8 8
16 13 10 7 10 17 15 17 20 22 21 20 21 21 20 19 22 22 20 21 21 21 21 21 22 22 21 22 22 22 20 21 20 19 18 17 17 17 17 16 15 15 15 15 15 15 13 14 14 13 13 13 13 13 11 12 11 11 11 11 11 11 11 10 11 12 11 11 11 11 10 10 10 10 10 10 9 9 8 9 9 9 9 9 8
12 9 9 12 11 16 17 19 21 21 20 19 20 20 20 19 21 20 20 20 18 20 21 21 20 20 20 22 21 21 20 18 18 16 17 17 17 17 16 15 15 16 16 16 16 16 14 14 14 14 13 13 13 12 12 12 12 11 11 12 12 11 12 11 11 11 12 11 11 11 12 11 11 11 11 10 10 9 8 9 8 8 9 9 9
8 7 9 6 6 8 16 18 19 20 20 20 19 19 18 17 17 18 19 21 20 20 21 21 20 20 19 19 18 18 18 17 18 17 17 17 17 16 15 14 14 15 14 15 16 15 15 15 14 14 14 13 13 13 12 12 12 13 12 13 13 12 12 11 11 12 11 11 11 11 11 12 10 11 14 11 11 8 8 8 8 8 9 9 9
11 12 11 9 12 15 14 17 17 19 19 20 18 18 19 19 19 20 18 19 18 19 19 21 21 20 18 17 16 15 15 17 17 17 16 16 16 16 16 16 15 15 13 13 13 14 15 15 15 15 14 13 12 11 12 16 14 11 13 11 11 12 12 11 11 11 11 12 12 12 11 12 11 11 13 14 14 11 8 9 6 7 9 9 9
12 13 9 2 8 9 11 13 15 17 18 18 17 18 19 20 19 20 19 18 19 19 20 21 19 19 17 17 17 16 15 16 16 16 16 15 15 15 13 13 13 14 13 12 12 15 15 15 15 15 15 14 13 12 16 16 17 16 13 12 11 11 12 11 12 11 11 11 11 12 11 11 9 8 10 14 14 15 14 13 12 10 7 6 7
10 9 11 11 6 8 10 13 16 18 18 17 15 17 19 20 19 20 20 19 19 19 20 17 17 16 17 18 17 16 16 16 16 16 16 15 14 13 13 13 14 15 13 13 14 14 13 14 14 15 15 14 13 14 18 19 18 18 14 11 12 11 11 12 12 12 11 11 12 12 12 10 10 11 11 10 13 15 16 15 15 14 14 15 13
12 10 9 9 10 10 7 13 15 16 17 18 18 18 18 18 19 19 18 20 20 20 18 16 17 17 17 17 17 18 17 17 16 16 15 15 14 14 15 16 17 15 14 14 14 14 14 14 13 14 14 14 14 14 18 20 19 19 18 14 11 12 12 12 12 13 12 11 10 11 11 10 10 11 11 11 9 12 14 17 16 15 15 16 16
9 11 10 11 9 8 9 10 12 15 17 18 18 19 18 18 18 18 20 18 18 18 18 19 17 17 17 17 17 18 18 17 16 16 15 16 16 16 17 16 15 15 14 15 15 15 13 13 13 13 12 13 14 14 19 20 19 19 18 14 12 12 12 12 12 12 12 12 11 10 10 10 11 10 9 10 10 10 10 10 11 10 11 14 15
9 9 11 12 11 12 12 14 15 13 18 17 17 18 17 17 16 18 18 16 18 18 17 18 17 17 17 17 18 17 17 17 17 17 16 17 17 15 16 15 15 16 15 14 15 15 14 14 15 15 13 13 12 15 19 20 19 20 19 14 13 12 10 10 10 11 11 12 12 12 12 12 10 10 9 10 10 10 10 9 10 11 12 12 12
11 13 13 13 13 13 14 13 12 14 15 17 18 18 18 19 19 19 19 18 17 17 18 18 17 18 19 18 19 18 17 17 17 17 17 17 17 16 16 14 13 14 14 13 13 14 15 15 15 15 15 14 12 17 19 20 21 20 18 11 13 13 12 11 10 11 11 10 11 11 11 12 11 11 11 11 10 9 9 11 11 11 11 11 11
14 15 16 15 15 15 15 13 13 14 15 16 18 19 19 18 19 18 19 20 19 16 18 19 19 19 19 19 19 19 18 17 18 18 17 17 16 16 15 13 14 14 15 15 14 14 13 15 15 15 16 14 14 14 19 20 20 20 14 11 13 12 12 13 12 11 11 12 12 12 12 11 12 12 12 11 12 10 10 11 10 10 10 10 10
16 17 16 16 16 14 15 14 14 14 17 15 18 18 19 18 19 19 20 20 20 20 19 19 19 19 19 19 18 18 18 18 17 18 18 17 16 15 15 14 15 15 15 15 14 13 14 14 16 16 16 15 14 14 20 21 21 21 18 14 12 12 12 11 11 12 11 11 12 14 13 13 13 12 12 13 13 11 11 12 12 11 11 11 11
16 17 19 19 17 16 17 18 15 15 16 17 17 20 20 19 19 20 20 20 21 20 20 20 21 20 19 18 18 18 18 18 18 18 17 17 16 15 14 14 14 14 14 13 13 13 13 13 15 17 16 17 15 13 21 21 22 22 18 12 12 11 12 11 11 12 12 11 11 12 16 14 13 13 11 11 13 12 12 12 12 11 11 12 10
18 17 18 19 19 17 16 16 16 15 16 17 18 18 18 17 20 20 20 21 21 21 20 19 18 18 17 17 17 17 17 17 17 17 16 15 14 14 15 15 14 13 13 13 13 13 14 14 14 16 14 17 17 11 16 22 22 22 23 14 11 12 12 12 12 11 11 11 12 12 12 18 18 16 12 10 13 15 12 12 11 11 11 11 9
18 18 20 19 18 16 16 14 12 12 15 17 17 18 18 17 17 17 20 21 20 18 17 17 17 18 18 18 17 18 18 17 16 16 15 15 14 14 14 14 14 13 13 13 14 14 14 13 14 14 14 16 15 14 14 22 22 23 24 18 12 13 12 11 11 11 12 11 11 12 12 14 20 19 17 14 13 15 13 11 13 12 10 3 6
18 19 20 18 17 15 15 13 12 13 14 15 15 14 14 13 16 19 20 18 16 17 17 17 17 18 18 18 17 16 17 15 15 14 14 14 14 14 13 14 13 12 13 13 12 12 13 12 13 12 12 12 13 18 10 20 22 23 23 24 15 14 13 12 12 11 12 12 11 10 10 11 18 20 20 19 18 15 15 9 11 11 8 8 7
20 20 21 20 18 18 14 12 12 12 13 15 17 14 13 15 18 17 16 15 16 16 17 16 16 16 16 17 16 17 15 13 14 15 15 15 13 14 13 12 12 11 12 13 12 12 12 11 10 10 10 11 9 11 16 16 20 23 24 23 22 15 14 12 12 12 11 11 10 11 11 11 15 17 18 18 18 19 12 9 10 8 6 6 5
20 20 20 22 20 18 15 10 12 10 12 12 12 11 12 14 16 12 12 13 15 15 15 16 15 15 15 16 15 16 16 14 15 15 15 14 14 13 12 11 12 11 11 12 11 11 11 12 12 11 12 12 11 9 13 19 18 23 22 23 24 22 15 13 13 12 10 10 11 11 10 11 14 16 17 17 17 14 10 13 12 12 11 5 5
18 20 20 20 20 15 10 10 8 8 9 9 9 12 12 13 12 10 10 13 14 15 15 15 16 15 15 15 14 14 15 14 14 15 14 14 14 14 12 11 12 12 11 11 11 11 12 12 11 12 11 11 11 13 9 15 21 22 23 23 24 24 21 14 12 12 11 3 7 10 8 8 14 15 16 13 8 8 10 8 9 8 5 5 7
19 19 21 22 19 11 9 8 7 8 9 8 10 13 13 12 12 11 12 12 14 14 14 14 15 14 15 14 14 14 14 13 14 13 13 12 13 13 13 12 12 12 11 11 11 12 11 11 11 11 11 11 11 10 11 11 14 18 19 21 22 23 22 20 15 11 6 7 6 9 10 8 5 5 6 5 6 6 12 12 8 7 7 7 8
18 20 19 17 14 4 4 2 6 9 9 10 10 11 10 11 11 13 13 12 13 13 13 13 13 13 13 13 14 12 13 13 13 12 12 12 12 12 12 12 12 12 12 12 12 12 12 11 11 11 11 11 11 11 12 10 10 9 9 10 11 11 14 13 9 8 7 5 4 4 4 4 4 8 2 4 4 8 7 6 7 8 8 8 8
16 17 17 15 13 10 10 11 12 12 5 8 10 10 12 12 13 15 13 13 13 13 13 13 14 12 12 12 12 13 13 12 13 13 13 12 12 13 13 13 13 12 12 12 12 11 12 11 11 11 11 11 11 11 11 11 10 10 10 9 11 10 11 10 11 10 11 11 9 7 6 4 5 5 6 6 6 7 8 8 7 8 9 9 8
17 18 16 13 13 14 13 11 11 9 11 12 4 7 12 12 12 13 12 13 13 14 13 14 13 12 12 11 12 13 12 12 12 11 11 9 10 12 12 11 12 11 11 13 12 11 11 11 11 11 11 11 10 11 11 11 10 15 13 12 11 11 10 10 14 16 11 10 10 8 8 9 10 9 9 10 12 11 10 10 11 9 9 9 9
15 13 14 13 15 15 15 14 12 11 11 9 10 10 1 9 11 10 12 12 13 13 12 12 12 12 12 13 12 12 13 11 12 12 10 5 10 12 5 5 12 13 13 2 4 6 5 8 12 10 9 10 10 8 6 12 14 20 17 17 15 15 15 12 13 16 11 10 12 12 11 11 12 11 12 12 12 11 10 10 10 10 10 9 10
15 15 15 16 15 14 14 15 12 10 9 9 9 8 9 8 1 8 11 11 12 11 9 10 10 10 10 12 11 11 12 10 10 12 11 9 5 5 11 13 11 7 4 6 9 10 10 11 5 5 4 13 14 12 12 14 17 18 18 14 16 18 17 16 15 13 11 12 11 13 12 12 12 13 13 13 11 11 9 10 11 11 10 10 8
Wind_Direction
182 183 184 182 181 181 181 177 180 180 177 175 175 177 180 170 176 174 171 176 161 169 173 177 174 176 181 186 179 180 189 177 189 192 188 181 147 155 160 181 167 174 180 183 192 196 246 222 138 210 149 154 138 78 102 136 162 117 93 8 355 5 353 315 25 12 20 163 121 202 135 200 163 219 251 164 162 136 150 159 136 132 120 143 120
180 182 185 181 183 181 181 178 181 180 180 177 179 178 182 175 177 174 172 177 170 173 173 180 177 179 179 186 184 177 183 184 187 189 191 168 147 156 169 188 172 183 183 193 195 186 203 206 180 163 235 116 111 92 162 113 95 87 103 35 356 351 344 334 13 330 210 149 175 145 150 149 99 187 203 190 160 160 157 172 141 165 138 138 150
182 182 184 183 184 180 182 181 183 182 179 179 180 178 181 180 178 175 173 177 172 175 173 180 180 181 185 183 195 177 182 188 189 187 191 177 158 174 182 187 182 188 192 193 202 202 200 204 192 169 190 136 161 168 145 158 132 159 138 53 43 312 297 251 276 256 335 65 53 241 154 157 162 229 226 174 189 152 174 152 175 161 132 126 128
188 185 184 184 185 181 182 181 182 182 180 180 180 180 182 184 178 176 176 175 173 174 176 176 177 177 187 190 198 206 172 180 195 179 187 201 167 170 189 187 191 198 193 202 199 201 202 205 225 172 172 176 169 158 167 168 173 147 131 121 210 287 238 297 233 243 317 89 204 176 138 157 132 169 185 187 189 179 169 149 107 233 151 155 177
193 189 187 183 183 184 183 181 181 184 182 182 181 180 185 184 179 177 175 177 174 171 174 172 171 172 181 192 192 220 167 173 188 185 186 198 196 173 182 193 190 206 198 202 211 197 201 206 210 203 179 179 187 168 192 159 200 179 151 183 177 196 283 219 44 3 320 323 339 271 119 116 52 334 82 70 278 196 174 142 150 230 184 149 234
195 195 191 186 185 182 182 183 185 185 183 184 183 182 181 181 179 178 176 177 177 171 173 172 172 174 174 180 185 188 176 178 183 190 186 184 206 184 179 188 194 203 205 206 207 205 194 204 210 208 202 197 194 208 199 186 153 150 219 153 227 202 274 16 39 301 244 150 301 300 358 26 13 2 256 24 274 302 155 178 170 195 167 167 182
203 200 194 191 186 186 184 185 187 185 183 182 183 183 182 179 180 180 177 176 176 171 173 173 174 179 179 182 181 182 182 186 191 197 194 186 204 198 186 182 193 204 203 202 210 204 200 200 199 213 218 202 202 211 217 217 147 236 195 181 140 152 209 261 176 184 94 225 174 239 167 249 329 311 30 14 82 318 324 308 169 195 147 121 175
201 204 191 196 190 188 186 186 186 187 183 182 184 183 182 178 178 179 180 177 175 171 174 176 175 178 182 186 185 190 192 192 191 201 203 201 195 203 196 190 184 204 209 197 208 198 206 203 203 208 219 218 206 211 223 226 154 187 169 150 176 152 221 247 52 5 294 250 104 256 203 137 10 295 291 47 213 59 97 238 221 143 257 227 319
201 199 199 195 189 190 188 186 188 187 183 183 184 183 180 180 178 178 179 178 177 174 175 178 180 181 182 186 191 197 200 197 194 198 203 203 197 200 202 197 181 192 209 207 198 206 202 205 204 210 213 219 214 222 219 214 208 172 190 186 208 199 226 236 228 223 238 199 135 191 291 206 191 219 126 221 281 114 256 356 16 65 268 208 166
206 214 204 199 193 192 189 185 186 189 186 183 183 182 179 178 178 179 180 178 175 176 177 179 183 184 187 189 193 197 200 200 196 189 195 190 202 192 199 210 193 191 201 209 199 203 208 204 205 207 211 216 212 224 215 211 205 211 202 211 212 222 200 218 237 242 273 301 147 170 187 241 273 266 226 186 193 123 213 194 298 207 198 111 112
201 203 205 202 200 196 185 185 186 189 187 184 184 184 180 179 179 181 181 179 178 178 178 181 183 188 189 191 193 196 197 193 193 186 187 186 192 194 195 199 208 201 201 199 210 205 206 208 212 207 215 212 216 230 226 219 208 207 214 208 215 225 221 226 237 243 255 266 240 195 199 192 190 212 276 338 318 187 271 287 238 329 6 3 16
205 206 210 204 204 194 189 186 184 187 187 184 186 183 181 180 179 180 181 181 179 178 180 181 184 189 193 192 194 196 195 192 191 190 185 188 189 194 195 195 202 212 208 201 202 208 206 206 215 215 207 212 205 217 220 224 235 205 201 205 213 216 233 235 243 246 242 213 256 204 203 223 170 205 205 177 229 255 251 286 325 284 249 313 12
192 197 210 215 198 193 191 185 182 185 188 185 186 185 182 181 180 180 181 181 179 179 180 181 183 190 193 195 195 194 198 193 190 192 188 191 192 194 192 196 199 207 206 216 202 205 203 203 206 213 209 210 219 206 221 229 248 252 212 214 215 213 219 227 236 241 241 252 240 215 222 241 188 202 237 217 165 173 226 253 273 313 298 253 250
205 213 209 200 200 199 190 183 182 185 188 186 186 183 182 181 181 182 182 180 180 180 179 180 185 189 194 198 197 194 199 197 191 194 192 192 194 197 196 199 199 204 206 206 214 199 204 199 204 210 213 204 205 208 211 212 218 240 234 232 227 219 230 224 235 244 250 242 239 260 228 263 261 203 192 223 223 196 207 223 239 276 281 273 222
196 196 198 206 206 197 188 184 183 184 187 187 185 185 182 182 180 182 181 181 181 182 181 183 184 191 193 198 199 195 198 197 196 196 196 196 198 199 202 205 205 205 208 201 207 205 197 196 196 208 209 205 201 203 204 208 212 217 235 231 244 228 224 237 233 240 245 243 244 239 252 248 263 296 280 215 245 259 233 267 303 273 278 297 280
193 192 199 200 212 206 191 186 184 183 185 187 185 184 183 182 182 183 181 180 180 181 183 184 186 188 192 194 198 198 197 197 196 195 198 199 199 201 200 206 212 205 202 202 197 204 199 197 195 201 207 206 204 203 204 208 210 217 219 225 230 232 233 227 241 250 246 245 244 241 238 255 226 228 238 234 235 262 310 327 282 240 271 281 308
192 197 195 201 206 208 200 188 186 184 185 186 183 184 184 182 182 185 184 181 181 182 181 182 183 186 190 193 195 197 197 198 196 195 198 198 199 202 203 204 210 212 201 198 199 196 201 199 199 200 198 207 206 203 206 209 213 214 217 223 231 234 227 229 234 237 251 251 233 231 232 240 257 270 276 276 281 312 314 272 263 269 279 288 281
192 185 193 196 196 199 197 191 188 186 185 186 184 184 183 184 182 183 186 184 182 181 181 180 181 185 188 192 195 196 196 198 199 194 198 197 198 201 204 203 206 207 211 203 194 196 200 200 201 201 199 203 207 204 202 206 211 220 221 222 227 233 233 232 230 240 240 245 252 241 223 231 229 233 225 243 217 196 235 241 245 239 232 252 270
197 192 194 197 199 204 197 193 192 188 186 186 184 183 183 184 183 184 185 186 183 182 181 181 181 185 188 191 192 193 195 197 198 195 196 201 201 197 204 204 202 204 202 208 192 198 196 197 199 197 201 201 200 208 200 203 208 218 222 222 217 218 230 234 231 233 239 236 237 241 247 250 248 246 262 233 207 212 225 243 250 238 228 229 242
204 190 187 187 197 213 196 193 192 189 186 188 185 185 185 184 182 185 185 184 184 184 181 181 183 185 186 187 189 190 193 194 195 195 196 199 201 199 201 202 203 200 199 199 200 199 196 195 195 201 201 201 200 202 202 199 204 211 220 229 216 205 222 230 236 230 231 228 228 230 228 235 238 247 241 245 238 233 230 226 230 232 226 231 230
195 194 188 188 196 206 207 199 193 190 188 188 186 187 186 184 184 184 183 184 185 186 182 183 182 185 184 186 188 189 192 192 193 194 198 197 198 201 198 203 197 202 197 195 200 200 199 198 201 200 206 201 200 201 201 198 199 204 213 222 235 212 208 222 229 242 241 234 233 232 229 226 229 237 234 239 238 222 220 236 238 230 232 222 224
194 190 185 179 192 202 212 218 198 190 187 189 189 188 187 188 186 185 184 186 186 185 184 182 183 185 186 186 188 187 188 191 193 192 197 195 197 198 198 198 200 198 200 197 196 201 201 200 205 202 203 205 197 201 203 200 199 202 209 209 216 225 218 218 227 228 231 241 235 229 235 235 229 235 239 239 238 240 220 221 225 235 236 234 220
197 199 181 178 187 189 195 208 200 193 188 189 190 189 189 189 188 186 185 187 187 186 184 182 184 184 187 186 186 185 187 190 192 192 196 196 195 195 196 197 201 197 197 202 195 201 199 201 206 205 200 203 196 198 203 204 200 202 207 216 214 211 216 219 219 225 227 226 231 232 231 231 231 232 235 242 246 247 249 244 232 223 231 240 235
206 201 192 173 185 192 194 196 204 194 190 191 191 191 191 190 189 187 189 187 187 186 183 182 184 185 184 184 187 188 189 190 193 194 196 198 194 194 194 198 199 202 194 199 201 199 198 198 203 204 201 202 197 197 200 204 205 204 208 214 220 217 214 217 224 224 224 225 230 229 237 234 228 232 234 238 238 243 245 242 250 250 244 245 242
204 204 200 180 185 180 181 191 195 195 194 191 192 193 193 190 190 190 190 187 187 185 183 183 187 186 186 186 189 189 189 192 194 196 197 197 198 195 192 197 198 205 200 193 198 199 198 196 201 202 200 200 198 198 199 204 204 206 209 212 215 218 220 219 221 225 229 228 227 230 230 230 231 235 232 232 234 236 236 243 240 239 243 242 243
197 202 203 189 167 176 176 187 191 195 196 190 191 194 194 192 192 192 189 186 186 185 185 183 186 187 187 189 189 190 192 193 195 197 198 198 200 199 191 194 198 200 204 196 192 198 197 196 200 201 201 199 199 198 200 205 207 207 207 213 212 216 218 219 221 222 224 225 230 229 231 231 231 228 234 234 235 235 235 236 242 244 240 238 238
188 194 195 208 165 173 181 186 192 196 196 191 192 193 195 193 194 193 189 187 185 185 184 184 186 189 187 190 190 193 193 193 194 197 198 198 200 201 198 193 196 199 201 201 193 196 197 196 197 201 201 198 198 199 199 203 210 210 206 210 216 214 217 218 220 222 223 223 225 227 228 230 232 231 234 236 231 230 233 237 233 237 241 245 242
169 182 201 196 190 170 186 187 192 194 196 194 193 194 195 194 194 193 190 187 185 185 183 184 185 188 188 190 191 192 193 192 193 195 198 198 199 201 200 194 192 198 200 202 199 193 195 196 195 199 200 198 198 200 199 201 205 209 209 209 214 218 216 217 220 221 226 228 226 228 231 226 225 226 230 234 235 234 227 232 233 232 237 239 245
178 185 190 200 203 208 179 187 192 195 196 196 194 195 195 195 196 195 194 190 185 184 184 184 184 187 188 189 189 190 192 188 191 192 197 199 198 199 198 197 191 198 201 202 204 196 193 196 195 196 198 199 200 201 201 199 201 204 210 212 212 215 218 218 220 222 223 229 235 237 236 236 225 209 212 222 236 238 236 233 230 234 234 238 242
190 188 190 198 197 194 190 185 192 196 195 198 195 193 194 194 193 194 197 191 184 185 184 184 185 187 185 185 185 186 187 188 188 190 194 195 197 197 198 199 193 197 199 202 203 202 196 196 196 196 198 200 202 203 198 193 195 200 204 213 212 215 219 220 220 225 228 225 229 238 243 237 231 213 196 204 217 230 241 248 247 228 232 238 240
8 17 2 358 203 204 198 193 194 199 200 200 196 193 194 195 192 193 196 192 185 185 186 187 185 184 181 180 183 185 183 187 186 187 189 191 194 195 195 193 194 194 198 196 203 204 205 198 198 198 200 202 203 206 185 185 191 200 203 208 213 212 214 218 220 219 227 230 233 233 240 241 229 206 196 197 206 216 220 229 245 259 273 263 253
359 352 337 329 307 234 208 205 201 205 206 205 201 196 194 196 192 194 192 192 188 187 188 187 183 179 179 180 182 181 183 184 184 185 185 188 191 192 193 190 194 193 194 197 201 204 208 206 202 203 204 206 208 198 175 182 189 196 205 208 210 214 211 213 216 219 219 225 232 236 238 239 235 232 230 194 203 212 219 226 230 237 245 254 253
345 333 313 320 310 298 249 212 212 210 208 207 203 201 197 197 193 192 191 192 190 188 184 183 183 180 180 180 180 181 182 181 183 182 181 183 187 190 192 193 194 193 191 198 199 202 204 211 210 205 208 209 215 184 174 181 188 193 201 213 215 214 217 215 215 216 221 222 225 231 242 244 245 222 215 227 203 206 219 223 227 231 239 241 246
330 319 316 306 310 303 298 280 233 213 216 209 206 203 199 200 196 190 190 191 188 185 183 183 183 181 180 181 180 180 180 180 179 179 179 182 184 189 192 192 191 191 193 197 201 200 203 205 211 212 209 214 219 172 176 181 188 192 198 205 222 223 222 223 218 217 219 222 221 225 228 234 239 241 236 227 225 220 207 215 224 229 235 239 237
310 307 309 308 303 284 278 274 277 243 218 213 207 204 199 199 197 192 193 189 187 186 182 182 182 180 180 180 181 181 180 178 177 178 179 182 185 188 191 192 192 192 192 195 199 200 201 203 206 212 213 214 222 165 176 179 186 190 195 198 217 230 238 234 227 223 222 222 222 222 225 230 232 234 233 228 225 223 224 222 215 220 228 239 238
317 308 300 293 293 296 288 279 265 264 236 211 208 204 199 196 197 193 190 189 187 185 180 181 181 182 182 181 180 180 179 178 179 179 181 184 185 187 189 192 196 196 196 195 199 202 200 203 204 209 215 215 214 164 179 179 183 189 185 195 212 224 233 237 236 232 227 225 226 224 223 226 229 233 228 215 218 223 226 229 234 235 238 236 238
313 309 305 301 293 284 281 272 261 253 249 216 207 202 200 195 195 192 188 189 187 183 181 180 183 183 182 182 181 181 180 180 180 181 184 185 185 185 188 190 196 199 197 197 199 202 202 203 204 205 212 213 220 175 177 181 182 183 173 198 208 217 224 227 234 233 230 229 226 225 226 228 227 228 225 205 205 209 230 236 240 245 249 253 253
316 311 304 300 296 297 290 281 259 246 244 228 205 200 196 193 193 190 187 188 187 186 184 181 184 184 182 182 182 182 181 181 182 184 186 187 186 184 187 189 197 200 202 201 200 203 204 206 204 207 208 211 219 176 178 180 183 178 181 195 203 213 219 221 227 230 231 231 228 224 226 229 232 232 218 199 191 191 223 232 240 248 250 251 252
318 312 310 308 313 312 300 292 272 245 236 232 209 198 193 191 190 189 187 188 188 186 184 183 185 184 182 182 183 183 183 183 184 186 186 186 186 185 187 189 197 203 208 206 203 204 207 208 209 212 201 208 219 187 178 179 182 179 186 198 200 210 215 216 219 224 226 229 231 224 221 227 230 232 221 193 186 190 219 228 235 243 247 249 250
320 315 314 316 309 294 281 269 259 241 234 225 209 195 192 186 189 189 185 189 189 186 185 181 180 180 183 183 184 184 185 185 185 186 187 187 185 186 188 190 196 202 206 213 208 210 211 211 212 215 206 207 216 206 175 179 181 182 188 194 201 207 214 213 216 223 222 222 227 231 218 214 225 230 226 193 183 197 213 227 234 238 244 245 251
322 319 321 308 298 290 283 269 254 240 232 220 206 194 188 185 187 189 187 190 188 180 178 176 180 183 184 184 184 185 186 186 185 185 186 186 187 190 190 190 196 200 204 210 214 215 215 215 216 213 216 211 213 214 176 182 182 182 191 194 205 209 210 211 214 220 226 226 223 224 234 206 210 218 220 212 187 200 216 228 234 241 242 312 359
324 319 312 311 307 294 285 270 252 235 221 217 205 190 183 177 185 192 190 187 176 175 177 177 180 183 184 184 185 183 185 184 184 181 184 187 188 191 189 190 197 199 205 206 210 218 219 217 219 213 216 218 205 208 175 184 181 186 189 198 205 211 207 211 215 221 223 229 229 225 228 212 198 208 213 215 216 205 208 220 234 246 287 348 315
324 322 320 315 313 301 281 259 247 227 212 216 200 178 174 176 190 192 186 178 172 173 175 176 179 181 182 182 182 179 181 182 182 180 183 184 184 189 189 190 196 197 199 204 205 212 217 219 216 213 215 217 213 205 167 176 188 188 191 198 207 212 200 210 220 222 222 229 227 231 235 206 189 200 207 212 217 221 204 224 235 256 268 283 295
324 323 317 317 310 295 274 251 244 216 205 216 193 166 174 180 189 183 182 172 167 169 172 174 177 180 180 181 179 178 179 182 180 179 184 182 184 187 185 187 190 194 197 200 204 205 212 217 217 215 217 214 211 217 171 172 183 193 194 197 205 215 212 212 219 230 225 227 236 235 236 189 179 189 199 207 216 213 210 212 211 225 234 247 260
316 318 316 313 307 291 281 257 232 181 201 200 184 170 167 177 180 177 179 167 166 168 172 174 175 177 177 177 176 177 180 183 179 180 181 182 182 183 184 186 187 194 199 200 201 203 206 213 218 218 217 215 210 212 195 175 180 190 197 200 204 208 217 220 223 230 243 259 48 47 31 178 182 185 193 198 205 210 221 234 214 203 196 223 220
329 330 326 319 313 274 284 237 175 186 191 192 185 177 176 176 175 176 178 163 167 166 171 172 174 175 175 176 174 176 179 182 179 181 182 183 182 183 185 185 189 194 198 201 200 203 205 209 216 219 219 214 213 214 213 177 186 190 196 200 203 207 212 215 219 231 64 79 85 73 87 101 126 157 155 173 201 187 196 208 194 178 207 212 216
324 322 319 324 338 303 248 248 172 188 184 191 183 169 165 170 170 174 174 161 166 164 168 170 172 172 173 176 170 175 175 181 182 183 182 184 184 186 187 188 191 195 196 200 201 203 206 208 211 217 216 216 214 214 217 200 168 178 189 195 208 220 226 230 235 247 249 228 149 193 104 100 108 163 189 122 147 127 156 170 193 196 208 215 207
320 317 329 348 358 17 34 36 31 19 340 203 182 184 181 174 171 179 169 163 164 166 168 169 169 168 171 171 173 166 173 183 184 187 184 186 188 193 191 189 194 195 197 196 201 203 206 207 211 211 214 215 216 215 214 213 179 176 183 181 186 195 196 195 208 214 220 228 227 115 158 152 151 172 192 197 210 213 223 217 214 203 202 205 201
326 325 327 357 10 26 36 38 41 42 37 24 32 177 167 180 175 184 155 167 168 170 167 166 167 167 170 172 174 176 184 185 184 190 192 186 193 196 191 190 194 199 199 199 198 202 203 212 215 214 213 215 223 221 217 213 188 166 176 186 187 195 196 195 205 204 208 217 226 222 235 229 229 222 226 232 237 233 232 232 230 224 221 212 203
326 328 327 4 15 14 24 27 32 36 34 30 41 35 38 178 180 174 161 175 173 171 168 169 170 171 170 174 184 178 186 188 182 186 181 99 37 50 35 199 195 189 200 134 74 186 197 212 220 215 217 227 228 231 163 155 137 158 169 174 178 182 192 198 191 190 199 210 212 221 221 223 224 225 229 231 228 226 222 227 230 223 227 229 223
331 333 343 5 11 12 19 21 15 14 28 27 37 44 49 27 359 163 164 173 170 168 166 173 169 179 172 175 187 182 179 191 187 180 188 161 139 88 50 44 47 66 74 114 104 96 79 55 40 233 174 85 104 103 123 135 142 156 166 160 166 173 180 186 161 162 193 207 212 214 216 220 220 221 224 229 227 223 215 221 227 224 221 229 234